Weather in Kamianyi Brid

Ukraine / Zhytomyr Region     50°28′34″N   28°56′31″E
temp.,
°C
wind,
m/s
gust,
m/s
humid.,
%
clouds,
%
prec.,
mm/h
press.,
hPa
HPBL,
m
16 may, sun
sun1600:00+11wsw229145 0.0 101120
03:00+10sw22920 0.0 101215
06:00+10s22925 0.0 101214
09:00+15sse23755 0.0 1013350
12:00+20sse345724 0.0 10121181
15:00+21sse5658100 0.9 10111401
18:00+20se466883 1.2 10101015
21:00+15se4784100 1.6 1010113
17 may, mon
mon1700:00+14se3385100 0.0 100938
03:00+13se3486100 0.6 100855
06:00+13se2290100 0.2 100822
09:00+16ne3379100 0.6 1007279
12:00+18ene3475100 0.5 1006417
15:00+16nne4483100 2.4 1005272
18:00+15nne238782 0.3 1005175
21:00+14wsw349292 0.4 100490
18 may, tue
tue1800:00+13nw3596100 1.3 1002128
03:00+13nnw2296100 2.1 100140
06:00+12ssw339647 0.1 100163
09:00+15s4584100 0.3 1001472
12:00+14s4594100 2.4 1001328
15:00+12w8148882 4.4 1003893
18:00+12w6118632 0.0 1004845
21:00+10w7138881 0.2 1005726
19 may, wed
wed1900:00+10wsw6148996 0.0 1006569
03:00+9sw7159416 0.1 1006513
06:00+9wsw7159187 0.0 1006732
09:00+12wsw81381100 0.0 10071010
12:00+13wsw91372100 0.2 10081463
15:00+14w91463100 0.4 10091563
18:00+13wnw7117698 0.4 10111187
21:00+9w379183 0.5 1013145
20 may, thu
thu2000:00+8wsw499411 0.0 1015179
03:00+7w379411 0.0 1016117
06:00+7w3594100 0.0 1017132
09:00+12wnw347553 0.0 1018436
12:00+16wnw3358100 0.0 10181517
15:00+16w3353100 0.1 10171717
18:00+16w346190 0.0 1017548
21:00+11sw227172 0.0 101812